Temp
55 49 47 55 54 52 50 47 47 48 56 52 52 51 57 60 58 60 58 54 54 55 57 57 57 57 58 60 63 64 66 65 65 65 62 58 58 58 56 56 57 56 58 58
48 47 56 59 56 54 50 47 49 52 56 56 52 50 56 57 57 59 58 56 54 54 56 56 55 54 56 60 63 63 63 62 62 62 59 57 55 54 54 54 54 55 55 55
50 52 60 56 51 49 49 49 51 49 51 52 51 49 54 58 58 57 60 59 57 57 55 55 55 54 55 56 60 60 59 58 57 58 55 53 53 52 52 52 52 53 54 55
51 59 56 56 53 54 46 54 52 50 45 40 48 37 48 52 56 54 55 54 56 56 57 56 54 52 54 54 55 57 57 58 56 55 53 53 51 50 49 49 50 52 53 54
49 52 53 51 53 57 50 56 51 50 43 39 44 39 46 55 50 52 51 53 54 57 57 55 53 54 53 53 53 53 54 53 53 52 52 50 49 49 49 49 50 51 52 53
53 55 58 56 58 59 57 51 48 46 43 33 45 42 42 49 55 52 54 54 55 55 55 55 54 54 52 51 51 51 52 51 52 52 52 52 51 50 50 49 49 50 51 51
48 51 55 59 52 56 55 48 35 33 32 36 49 43 49 52 56 58 56 54 55 55 54 54 53 53 52 51 50 51 52 51 51 51 51 51 50 50 50 49 48 49 49 49
42 38 51 55 56 51 52 51 35 30 33 38 46 38 46 56 60 57 58 58 55 53 55 54 53 52 52 51 50 50 51 50 51 50 49 49 50 49 49 49 48 48 48 48
44 44 55 59 58 61 48 45 54 40 36 32 38 43 50 49 52 51 51 52 52 52 54 53 52 51 51 49 49 49 49 50 50 49 48 48 48 49 48 48 47 47 47 49
50 41 52 57 60 59 55 54 42 39 32 33 37 37 41 45 48 47 47 49 51 53 53 52 51 50 51 50 48 48 49 49 48 48 48 48 48 48 47 46 45 45 44 45
54 48 43 54 51 50 49 48 46 46 36 34 35 40 49 54 54 48 48 50 51 51 52 51 51 50 49 47 46 46 47 48 47 48 47 47 46 46 45 44 43 43 44 44
58 46 40 46 52 60 58 53 52 39 31 33 37 43 49 49 49 49 48 49 50 51 51 51 49 47 46 46 45 46 45 47 47 47 47 46 45 45 43 43 43 43 43 44
56 41 32 38 46 48 49 51 53 48 37 40 34 36 46 47 47 48 46 46 47 47 48 48 47 46 45 44 44 45 45 46 46 47 45 44 43 43 42 42 42 43 43 43
57 46 44 39 42 46 42 49 52 49 40 41 42 45 42 43 44 44 44 46 46 48 49 49 46 44 44 44 44 44 45 46 46 45 43 42 42 42 41 41 41 41 42 42
55 43 45 48 46 52 49 47 48 47 48 41 47 48 53 45 45 45 47 46 47 48 47 47 43 43 44 43 43 45 45 46 45 43 42 41 41 41 40 39 39 40 41 41
49 35 42 39 49 49 45 48 49 48 49 49 50 48 51 52 49 46 46 47 47 47 47 45 45 45 45 44 44 45 45 43 43 42 41 42 40 40 38 38 39 39 38 39
46 38 37 38 44 43 37 45 47 49 52 52 44 51 48 45 47 47 46 48 48 48 45 45 46 46 45 45 47 44 43 42 41 41 41 40 39 38 38 39 38 37 36 37
41 43 37 33 38 30 41 50 54 51 54 55 55 52 54 51 52 52 51 50 49 47 46 47 47 45 44 44 43 42 42 41 40 40 38 38 38 37 38 38 37 40 41 40
43 43 34 32 33 38 43 43 44 46 47 57 55 51 50 46 43 41 51 53 51 48 49 47 47 46 44 43 43 41 40 39 39 36 36 36 36 36 36 36 35 36 35 35
41 42 39 31 32 31 36 45 50 51 40 50 53 49 43 46 36 37 45 49 49 50 47 45 45 44 43 42 42 39 38 37 36 36 37 39 38 37 36 35 34 35 37 36
33 34 34 32 31 34 41 44 49 36 39 47 54 51 45 47 48 46 49 48 48 45 43 44 43 41 40 41 39 37 36 34 36 37 36 39 38 37 37 36 36 35 35 35
33 31 31 31 30 32 44 44 40 44 41 42 47 47 47 42 42 44 45 43 43 42 41 42 39 38 38 39 38 34 33 35 35 34 34 33 34 36 37 35 34 34 34 33
33 35 33 36 35 42 43 42 42 42 45 43 44 43 42 40 41 43 42 42 41 40 40 40 37 35 36 36 36 32 33 34 33 31 31 31 31 31 32 31 32 30 31 32
37 41 35 37 42 42 42 41 42 43 43 43 43 42 43 41 42 40 41 39 39 39 38 37 35 33 32 33 33 33 32 33 31 28 24 28 24 27 29 28 28 24 22 30
37 39 35 35 39 41 43 44 45 42 43 43 43 43 42 41 40 39 38 37 37 36 36 35 33 32 31 31 30 31 32 31 30 29 27 24 20 17 22 25 24 26 25 29
37 36 36 36 41 43 44 43 43 42 42 43 42 42 43 41 38 38 36 36 35 33 32 32 31 31 30 30 29 29 30 31 29 29 25 23 20 14 14 18 23 31 33 33
MSLP
1010.65 1011.25 1010.89 1011.11 1011.19 1011.60 1012.16 1012.36 1012.04 1010.73 1010.69 1010.80 1010.57 1010.68 1010.18 1009.75 1010.07 1010.04 1010.61 1011.40 1012.03 1012.47 1012.85 1013.22 1013.35 1013.39 1013.60 1013.63 1013.61 1013.86 1014.23 1015.09 1015.71 1016.01 1016.70 1017.19 1017.89 1018.09 1018.45 1018.47 1018.52 1018.58 1018.56 1018.62
1010.97 1009.82 1010.32 1010.81 1011.22 1011.59 1012.02 1012.27 1011.39 1010.97 1010.59 1010.97 1010.34 1010.30 1009.67 1009.53 1009.42 1009.43 1009.90 1010.76 1011.73 1012.61 1013.16 1013.62 1013.93 1014.00 1014.03 1014.06 1014.15 1014.28 1014.65 1015.30 1015.74 1016.07 1016.64 1017.14 1017.76 1018.17 1018.38 1018.44 1018.29 1018.39 1018.49 1018.63
1009.48 1008.92 1009.76 1010.46 1010.95 1011.36 1011.31 1011.66 1011.14 1011.62 1011.08 1011.07 1010.71 1009.75 1009.15 1008.59 1008.63 1009.03 1009.53 1010.11 1011.36 1012.12 1013.12 1013.81 1014.21 1014.45 1014.37 1014.41 1014.56 1014.77 1015.09 1015.42 1015.92 1016.40 1016.74 1017.42 1017.89 1018.28 1018.63 1018.86 1019.08 1019.06 1018.81 1018.74
1009.45 1008.79 1009.11 1009.69 1009.85 1010.33 1010.73 1010.41 1011.20 1011.62 1012.18 1012.02 1010.96 1009.83 1008.79 1008.55 1008.75 1009.16 1009.52 1010.31 1010.98 1011.83 1012.83 1013.55 1014.11 1014.53 1014.67 1014.95 1015.03 1015.03 1015.30 1015.70 1016.23 1016.56 1017.00 1017.74 1018.37 1018.99 1019.40 1019.32 1019.24 1019.08 1019.02 1019.07
1007.03 1007.53 1008.09 1008.42 1007.80 1009.76 1009.53 1010.12 1010.86 1011.50 1011.99 1012.13 1011.43 1010.87 1007.66 1008.12 1008.66 1008.94 1009.60 1010.11 1010.71 1011.26 1012.23 1013.16 1013.86 1014.31 1014.69 1014.95 1015.23 1015.43 1015.64 1016.13 1016.58 1016.92 1017.27 1017.87 1018.43 1018.90 1018.94 1019.06 1019.15 1019.22 1019.10 1019.02
1007.19 1007.09 1007.24 1006.54 1007.76 1008.42 1009.05 1010.11 1011.04 1011.57 1012.07 1011.42 1010.81 1010.22 1007.36 1007.30 1006.87 1007.82 1008.39 1009.35 1010.01 1010.90 1011.97 1013.00 1013.61 1014.23 1014.78 1015.08 1015.37 1015.71 1015.99 1016.52 1016.69 1016.86 1017.27 1017.72 1018.42 1018.93 1019.25 1019.50 1019.58 1019.46 1019.10 1018.83
1007.16 1006.82 1006.54 1006.23 1007.38 1008.24 1008.82 1009.76 1011.47 1011.99 1012.06 1009.79 1009.32 1008.93 1006.34 1006.03 1005.86 1006.19 1007.19 1008.27 1009.24 1010.33 1011.36 1012.49 1013.30 1014.10 1014.77 1015.31 1015.66 1015.89 1016.19 1016.87 1016.98 1017.24 1017.58 1017.93 1018.35 1018.72 1019.10 1019.39 1019.51 1019.41 1019.17 1018.99
1005.54 1005.80 1005.31 1005.10 1004.99 1006.21 1007.56 1009.08 1010.11 1010.47 1010.66 1009.12 1008.64 1007.00 1005.42 1004.73 1004.76 1005.38 1006.01 1006.72 1008.58 1009.94 1010.87 1012.04 1012.99 1013.83 1014.66 1015.42 1015.88 1015.99 1016.29 1016.77 1017.13 1017.30 1017.71 1018.03 1018.36 1018.73 1018.98 1019.04 1019.13 1019.27 1019.38 1019.17
1004.17 1004.03 1003.66 1003.45 1004.25 1005.02 1006.89 1007.86 1008.02 1009.13 1009.44 1009.39 1007.93 1006.16 1005.12 1005.03 1005.32 1005.78 1006.45 1007.41 1008.31 1009.27 1010.08 1011.32 1012.43 1013.34 1014.26 1015.01 1015.64 1016.04 1016.52 1016.90 1017.19 1017.54 1017.92 1018.31 1018.46 1018.68 1018.89 1019.01 1019.24 1019.23 1019.13 1019.05
1002.37 1003.32 1002.89 1003.32 1004.01 1004.10 1004.50 1006.13 1008.07 1008.94 1009.48 1008.89 1006.99 1006.34 1005.19 1005.40 1005.49 1006.18 1006.93 1007.38 1008.32 1009.47 1010.39 1011.36 1012.40 1013.19 1014.08 1014.67 1015.20 1015.98 1016.46 1016.87 1017.29 1017.60 1017.78 1018.12 1018.45 1018.66 1019.04 1019.29 1019.33 1019.27 1019.12 1018.98
1001.67 1002.28 1003.18 1002.90 1002.12 1002.49 1004.36 1005.00 1005.64 1006.58 1007.54 1007.47 1006.84 1004.69 1003.69 1004.10 1004.27 1005.44 1006.37 1007.04 1007.79 1008.84 1009.82 1011.07 1012.36 1013.24 1013.90 1014.77 1015.37 1015.82 1016.34 1016.93 1017.38 1017.56 1017.91 1018.26 1018.69 1018.98 1019.08 1019.10 1019.21 1019.17 1019.11 1018.99
999.84 1001.94 1002.97 1002.44 1001.93 1001.72 1001.95 1002.11 1003.89 1005.22 1007.05 1006.92 1006.41 1001.31 1003.14 1003.83 1004.75 1005.36 1006.36 1007.37 1008.37 1009.30 1010.19 1011.12 1012.23 1013.29 1014.14 1014.89 1015.42 1015.86 1016.43 1016.76 1017.31 1017.71 1018.22 1018.58 1018.82 1018.95 1018.94 1019.10 1019.29 1019.43 1019.34 1019.07
999.63 1000.99 1003.25 1003.02 1002.43 1001.82 1001.63 1002.80 1003.64 1004.49 1005.61 1004.71 1005.90 1002.76 1003.48 1004.16 1004.97 1005.66 1006.64 1007.63 1008.50 1009.42 1010.44 1011.42 1012.59 1013.45 1014.32 1015.09 1015.81 1016.23 1016.49 1016.85 1017.36 1017.91 1018.30 1018.73 1018.83 1018.91 1019.03 1019.21 1019.28 1019.31 1019.40 1019.35
998.85 999.84 999.37 998.64 999.68 1001.24 1001.48 1001.56 1002.44 1003.29 1003.55 1003.26 1000.66 1002.64 1003.55 1004.61 1005.27 1006.13 1006.99 1007.64 1008.36 1009.04 1009.97 1011.28 1012.47 1013.37 1014.23 1015.04 1015.65 1016.07 1016.53 1016.95 1017.41 1017.92 1018.37 1018.75 1019.05 1019.05 1019.28 1019.56 1019.52 1019.39 1019.39 1019.21
998.50 998.93 999.96 1000.05 1000.22 1000.15 1000.07 1000.58 1000.95 1001.10 1000.98 1001.18 999.98 1000.71 1002.29 1003.63 1004.73 1005.42 1006.27 1007.67 1008.53 1009.13 1009.91 1011.09 1012.29 1013.23 1014.00 1014.67 1015.35 1015.89 1016.43 1016.98 1017.43 1018.02 1018.60 1018.98 1019.25 1019.40 1019.57 1019.56 1019.43 1019.28 1019.35 1019.12
998.71 999.01 1000.02 1000.31 1000.41 1000.43 1000.21 999.86 999.57 999.64 999.99 999.50 1000.29 999.07 1000.70 1001.91 1003.48 1005.15 1005.74 1006.78 1007.93 1008.99 1009.79 1010.74 1011.85 1012.75 1013.49 1014.31 1015.21 1016.03 1016.71 1017.25 1017.82 1018.57 1018.96 1019.17 1019.39 1019.36 1019.34 1019.33 1019.35 1019.37 1019.40 1019.08
999.10 999.67 1000.61 1000.58 1000.75 1001.13 1000.59 997.90 998.47 998.57 998.29 998.41 998.29 998.02 1000.49 1002.10 1002.90 1003.64 1004.96 1005.74 1006.35 1007.79 1009.14 1009.86 1010.76 1012.07 1013.32 1014.26 1015.05 1016.03 1016.80 1017.49 1018.22 1018.71 1018.96 1018.98 1018.89 1018.94 1019.14 1019.32 1019.39 1019.52 1019.33 1019.01
999.25 999.95 1001.18 1001.28 1001.49 1000.90 997.63 996.92 997.23 997.50 997.01 997.34 997.29 998.24 999.26 1000.38 1001.28 1002.03 1002.88 1003.87 1005.92 1007.13 1008.52 1009.75 1010.85 1012.23 1013.44 1014.52 1015.53 1016.32 1016.98 1017.65 1018.16 1018.50 1018.45 1018.68 1018.92 1019.08 1019.19 1019.40 1019.53 1019.32 1019.13 1019.02
999.36 1000.45 1001.61 1001.54 1000.80 999.28 997.41 997.49 997.06 996.96 995.71 995.92 996.40 998.02 999.16 1000.21 1001.75 1002.89 1003.23 1003.63 1004.27 1005.78 1007.84 1009.52 1010.95 1012.20 1013.45 1014.61 1015.74 1016.73 1017.19 1017.74 1018.00 1017.79 1018.55 1018.99 1019.18 1019.15 1019.44 1019.66 1019.63 1019.18 1018.88 1018.60
1000.04 1000.44 1000.90 1001.51 1000.36 999.08 997.13 996.65 996.53 997.02 995.14 995.30 996.29 997.52 998.99 1000.41 1002.07 1002.18 1002.74 1003.88 1005.39 1006.75 1007.99 1009.62 1011.43 1012.91 1014.07 1015.03 1015.47 1016.19 1016.90 1017.09 1017.47 1018.41 1018.52 1018.65 1019.06 1019.31 1019.63 1019.75 1019.38 1018.84 1018.42 1018.22
1000.22 1000.43 1000.30 1000.51 1000.07 998.43 997.24 996.82 996.92 997.55 996.30 995.23 995.50 996.76 998.45 999.19 998.90 1000.16 1002.03 1003.86 1005.41 1006.88 1008.37 1010.13 1011.84 1013.09 1014.27 1014.87 1015.71 1016.20 1016.48 1017.42 1018.14 1018.36 1018.52 1018.67 1019.18 1019.66 1019.69 1019.48 1019.15 1018.82 1018.43 1018.14
999.27 1000.03 1000.23 1000.51 999.96 998.65 996.99 997.38 997.49 996.96 996.58 996.57 996.93 997.32 998.28 999.56 1000.15 1000.80 1002.38 1004.16 1005.66 1007.27 1009.04 1010.69 1012.29 1013.62 1014.56 1015.19 1015.49 1016.28 1017.02 1017.78 1018.19 1018.56 1018.79 1019.16 1019.60 1019.52 1019.29 1019.15 1018.94 1018.47 1018.09 1017.91
999.05 998.64 999.39 999.72 998.68 997.87 997.51 997.18 997.11 997.28 996.99 997.25 997.65 998.37 999.34 1000.54 1001.67 1002.73 1003.84 1005.18 1006.52 1007.91 1009.60 1011.14 1012.36 1013.97 1014.80 1015.17 1015.88 1016.73 1017.48 1017.95 1018.49 1018.85 1019.20 1019.50 1019.48 1019.37 1019.20 1019.04 1018.53 1018.26 1018.13 1017.88
998.81 998.79 998.73 999.01 997.91 997.60 997.56 997.60 997.45 997.50 997.55 997.89 998.36 999.08 999.84 1001.13 1002.36 1003.76 1004.98 1006.15 1007.38 1008.83 1010.17 1011.51 1012.71 1013.79 1015.01 1016.00 1016.55 1017.17 1017.75 1018.12 1018.56 1018.92 1019.22 1019.17 1019.28 1019.36 1018.98 1018.59 1018.52 1018.59 1018.44 1018.12
998.20 998.68 998.49 998.35 997.95 997.87 997.81 997.74 997.64 997.90 997.99 998.62 999.41 999.92 1000.59 1001.66 1003.18 1004.02 1005.40 1006.70 1008.13 1009.73 1011.04 1011.72 1012.56 1014.46 1015.73 1016.34 1016.77 1017.30 1017.56 1017.91 1018.35 1018.67 1018.82 1019.04 1019.09 1018.77 1018.68 1018.83 1018.75 1018.71 1018.56 1018.37
997.25 997.23 997.33 996.41 996.46 996.58 996.73 996.91 997.75 997.89 998.30 998.76 999.33 1000.77 1001.82 1002.36 1003.43 1004.79 1006.10 1007.20 1008.37 1009.92 1011.19 1012.12 1013.65 1014.68 1015.42 1015.94 1016.54 1017.11 1017.40 1017.70 1018.03 1018.49 1018.74 1018.81 1018.87 1019.00 1019.07 1019.06 1018.81 1018.59 1017.99 1017.69
Wind_Speed
5 5 10 13 9 4 5 4 7 2 3 2 6 7 14 9 8 11 12 10 8 6 3 3 3 5 6 5 8 8 12 8 7 5 4 4 4 3 4 4 5 5 5 6
2 17 12 4 8 7 4 4 15 9 6 7 10 10 11 6 7 12 17 14 13 8 7 5 4 2 3 6 8 10 10 8 6 3 4 4 4 3 4 2 5 7 7 6
16 6 16 8 5 8 9 16 14 9 4 5 7 10 10 7 5 5 10 11 10 15 14 8 6 6 6 8 9 11 9 9 8 6 6 4 4 3 4 4 4 4 6 6
13 12 15 14 18 12 12 10 5 5 3 7 3 7 4 4 6 6 9 11 14 15 12 10 8 7 8 7 7 10 10 10 8 7 7 7 4 3 1 2 1 2 5 5
14 19 19 16 14 13 9 7 9 5 5 2 6 5 6 8 8 9 10 11 14 16 16 14 10 10 7 8 8 8 10 9 8 8 8 6 6 3 1 2 4 4 2 3
12 4 17 12 10 17 6 3 1 0 3 7 15 9 6 8 11 7 8 15 17 17 15 13 10 9 7 7 8 8 9 7 7 8 8 9 8 5 3 3 3 3 2 3
5 11 5 7 8 6 6 7 3 4 2 11 10 12 19 6 7 11 17 19 19 17 17 17 15 12 11 10 8 8 10 7 7 8 8 7 7 6 5 3 1 1 2 1
17 9 18 8 15 8 20 15 9 8 9 7 6 9 8 9 11 6 11 20 18 18 18 17 15 13 12 10 8 8 8 9 7 8 7 6 7 4 3 3 1 1 2 3
15 16 6 16 6 16 6 17 13 5 1 2 6 7 6 1 5 3 9 15 19 20 21 20 15 13 12 11 9 9 9 7 7 7 7 6 5 5 3 1 1 1 2 3
5 1 7 15 6 11 13 10 5 3 6 17 5 6 8 4 8 5 10 16 16 16 17 16 14 13 10 10 8 8 8 8 7 7 6 5 5 4 3 2 4 3 3 3
8 6 2 15 19 24 12 11 7 6 7 8 13 11 9 19 16 15 14 16 19 19 18 16 13 11 10 8 7 8 8 8 7 7 5 6 5 5 5 5 5 5 4 5
27 5 5 14 3 14 26 26 21 8 4 5 6 21 4 6 6 9 10 10 11 13 14 15 13 11 10 9 8 8 7 8 7 6 6 6 6 5 6 6 5 5 6 6
20 7 3 6 6 3 17 13 16 12 3 18 8 5 6 3 6 7 12 11 11 13 14 13 12 11 9 8 7 7 7 7 7 6 7 6 5 5 6 5 5 5 5 5
19 9 27 23 11 10 8 19 20 19 17 11 30 15 3 5 8 9 10 13 15 17 18 15 11 10 10 9 9 8 7 6 6 6 6 6 5 5 5 4 4 5 5 5
19 24 15 18 1 18 11 13 21 30 25 20 16 27 18 14 12 16 13 13 16 18 17 15 13 12 11 10 8 7 7 7 6 7 6 5 4 4 4 4 5 5 5 6
7 4 7 9 16 11 10 17 22 24 24 28 23 24 6 13 7 12 18 19 18 17 16 14 15 15 14 12 10 8 8 6 6 6 5 4 4 4 4 5 5 5 6 6
14 7 5 15 6 3 16 29 24 21 24 20 27 16 9 7 16 19 19 21 24 21 18 19 20 16 12 12 12 10 8 7 6 5 4 4 4 5 4 4 4 5 5 5
7 9 3 2 8 13 9 9 24 26 25 22 24 9 17 14 20 19 23 26 21 20 19 18 15 13 11 10 9 9 8 7 6 5 5 5 4 4 5 4 4 5 5 5
3 9 4 5 11 5 11 5 8 15 26 27 21 9 8 8 7 5 13 19 22 23 19 15 14 15 14 12 10 9 8 6 6 7 5 4 4 5 4 5 5 5 3 5
4 6 10 4 8 13 1 8 7 5 21 9 15 13 13 14 8 7 12 15 17 18 17 17 15 14 12 10 10 10 8 7 7 4 4 3 3 3 6 6 6 5 6 7
4 5 16 6 5 8 6 4 5 12 6 6 18 14 19 15 6 10 19 17 17 18 21 18 15 13 11 10 9 9 8 6 4 3 2 3 2 4 5 5 5 7 6 7
9 9 4 3 1 12 6 5 10 5 2 2 3 6 15 6 10 20 21 21 22 22 20 17 14 11 8 9 9 8 7 5 5 4 4 2 3 3 2 3 4 4 4 5
4 5 8 9 7 2 4 2 1 2 3 4 6 5 12 15 16 18 20 21 19 20 17 14 15 12 7 7 7 8 6 6 5 5 3 2 2 3 3 3 4 3 4 4
2 1 4 4 6 7 4 2 2 2 1 3 5 12 15 18 18 18 16 17 16 15 15 14 14 12 8 5 6 7 7 6 6 5 2 1 1 2 3 3 3 2 2 7
4 9 6 4 3 2 4 6 5 5 9 12 8 10 17 20 17 18 17 16 14 12 10 12 13 10 10 8 7 7 6 6 5 5 3 0 0 2 3 2 2 3 3 4
6 8 8 8 10 8 6 7 5 10 10 14 20 15 11 15 18 17 15 13 14 13 10 11 11 11 10 9 8 6 6 6 6 4 2 1 0 2 2 3 5 6 9 10
Wind_Direction
198 182 203 205 204 172 146 204 252 247 182 190 231 255 270 279 222 211 190 175 190 176 131 120 121 123 110 84 114 121 123 114 123 110 102 85 93 96 72 78 84 77 74 63
137 224 212 206 179 197 201 228 254 303 209 177 264 255 259 242 226 194 196 186 170 153 157 165 160 139 89 109 108 105 103 104 104 112 107 119 131 105 105 69 50 40 41 42
205 192 186 175 165 181 217 228 252 225 353 254 271 278 256 255 184 185 207 198 160 167 166 168 158 134 120 112 118 114 110 103 97 109 105 85 68 50 39 24 22 13 38 42
233 210 180 197 217 186 230 200 210 246 114 261 145 280 266 258 216 205 181 174 174 168 166 163 161 152 141 127 112 110 111 105 98 97 89 93 112 114 130 140 187 29 41 56
221 178 184 202 213 186 230 145 189 215 200 262 266 265 223 212 216 212 201 187 183 174 165 166 166 161 149 140 133 118 107 102 109 108 114 112 95 103 127 79 42 28 41 70
230 214 194 203 182 203 150 110 298 126 153 249 236 217 200 210 222 201 194 189 180 171 165 163 166 151 144 141 129 124 116 113 116 104 98 103 112 118 83 41 50 3 347 9
166 205 219 148 185 162 170 114 296 290 208 249 211 232 247 242 222 199 190 190 184 175 166 167 166 161 152 150 142 130 128 126 123 111 110 115 115 112 114 127 166 311 319 290
203 215 188 176 195 176 202 194 193 204 225 252 188 236 240 218 225 214 196 186 170 171 170 171 168 159 157 151 148 138 132 126 127 122 114 115 117 122 140 160 180 256 258 278
194 233 175 187 147 166 174 210 205 295 143 311 218 289 298 216 263 163 157 163 179 176 171 171 166 161 153 151 155 145 134 131 136 125 119 106 105 109 120 97 232 293 320 302
199 275 203 192 144 221 178 153 152 212 232 253 226 240 232 286 247 180 170 182 179 174 170 164 162 156 156 153 142 140 137 131 128 118 114 116 112 94 83 64 43 21 347 341
175 161 295 150 200 190 191 209 201 167 163 230 271 255 206 219 211 191 190 185 178 174 169 160 158 156 147 136 135 133 124 121 116 114 105 102 91 87 84 72 57 43 21 11
204 131 178 206 296 217 208 213 202 201 230 241 244 249 165 223 185 169 178 165 163 167 160 155 153 145 143 143 138 132 129 122 124 122 117 107 102 94 81 67 44 29 10 355
179 192 94 320 302 230 208 212 209 218 78 220 205 237 18 97 140 166 153 147 151 148 148 148 151 152 142 134 132 135 132 128 136 126 114 100 85 83 70 49 20 4 334 315
172 188 209 216 235 161 188 202 209 207 227 214 235 251 163 164 166 157 158 159 161 162 160 158 153 147 142 144 144 140 133 126 113 109 99 90 75 60 44 23 2 347 341 340
181 221 212 231 219 199 188 192 200 216 222 210 241 241 226 187 185 189 166 156 163 167 163 162 152 148 150 147 138 127 116 117 119 103 107 102 84 59 40 23 4 356 350 333
190 243 144 215 217 218 236 224 217 219 222 243 251 252 185 192 140 152 174 167 170 171 165 154 152 155 155 147 140 128 127 121 119 124 113 95 72 57 47 29 360 348 330 326
179 127 128 224 166 166 252 226 225 227 227 225 232 243 149 167 180 180 173 177 176 173 168 162 162 157 147 148 144 140 136 128 117 116 106 99 69 46 15 348 345 317 304 305
149 159 118 192 135 216 249 204 222 229 237 232 244 204 190 187 194 187 183 173 174 168 165 162 154 144 135 124 122 129 131 125 118 115 88 57 37 18 359 337 301 310 330 338
97 168 166 190 201 298 262 208 160 187 238 230 233 192 176 127 84 10 185 186 174 166 157 150 140 137 136 137 134 127 107 119 121 80 82 63 34 15 339 310 292 291 303 323
129 211 202 168 200 223 21 190 178 100 266 177 185 177 147 143 162 221 171 155 155 155 148 137 132 127 126 137 135 126 137 119 91 137 127 92 36 358 318 309 308 317 333 329
132 144 208 188 227 280 231 178 143 169 253 217 183 169 161 184 188 144 153 152 144 137 132 127 129 133 139 130 133 133 110 110 144 121 95 77 17 295 293 317 331 338 342 341
160 153 170 146 160 255 154 83 172 219 30 48 161 163 179 109 121 140 142 139 138 134 131 130 125 125 127 139 126 116 124 142 116 96 80 68 244 262 288 290 292 321 332 328
184 174 169 188 206 265 246 195 179 204 175 162 124 114 123 122 130 136 137 138 134 131 128 129 127 128 128 111 131 130 143 126 126 121 146 199 336 335 312 312 335 336 331 315
240 174 150 108 239 229 221 253 215 164 104 90 113 129 133 136 139 135 133 131 128 129 131 130 130 126 116 127 120 133 144 140 139 148 180 195 54 298 350 347 337 332 318 323
175 150 165 255 262 7 278 232 178 126 112 105 100 127 135 132 137 135 132 127 125 124 132 134 119 140 154 151 145 148 150 148 146 150 169 201 277 12 351 342 304 304 258 266
189 171 182 212 178 183 209 192 142 140 143 137 128 124 125 132 132 130 124 127 130 130 133 122 145 152 156 148 149 154 153 154 156 158 173 200 47 11 358 349 326 283 275 302